Flag for Canada Weather past 2 weeks in Thompson, Manitoba, Canada

Now
77 °F

Sunny.


Feels Like: 79 °F
Forecast: 56 / 82 °F
Wind: 3 mph from Southwest

Location: Thompson

Current Time: Jul 30, 2014 at 12:58:51 PM

Latest Report: Jul 30, 2014 at 12:00 PM


Visibility: 10 mi

Pressure: 30.09 "Hg

Humidity: 47%

Dew point: 55 °F

Location of ThompsonLocation

Historic Weather in Thompson — Graph

°F

Thompson temperature yesterday

Maximum temperature yesterday: 81 °F (at 4:00 PM)
Minimum temperature yesterday: 46 °F (at 5:00 AM)
Average temperature yesterday: 65 °F

Past Weeks' High & Low Weather Summary

 TemperatureHumidityPressure
High84 °F (Jul 24, 5:00 PM)100% (Jul 18, 1:00 AM)30.27 "Hg (Jul 18, 1:00 AM)
Low39 °F (Jul 22, 5:00 AM)32% (Jul 23, 7:00 PM)29.39 "Hg (Jul 20, 2:00 PM)
Average64 °F76%29.89 "Hg
* Reported Jul 15 11:00 AM — Jul 30 11:00 AM, Thompson, Weather by CustomWeather, © 2014

Note: Actual official high and low records may vary slightly from our data, if they occured in-between our weather recording intervals... More about our weather records

Advertising

Thompson weather history for previous 24 hours

 ConditionsComfort  
Time TempWeatherWind HumidityBarometerVisibility
11:00 AM
Jul 30
75 °FSunny.3 mph50%30.09 "Hg15 mi
10:00 AM72 °FSunny.No wind69%30.10 "Hg15 mi
9:00 AM68 °FSunny.No wind78%30.10 "Hg10 mi
8:00 AM59 °FFog.No wind100%30.10 "Hg6 mi
7:00 AM50 °FFog.No wind100%30.10 "Hg5 mi
6:00 AM48 °FFog.2 mph100%30.09 "Hg5 mi
5:00 AM48 °FFog.No wind100%30.08 "Hg6 mi
4:00 AM52 °FPassing clouds.No wind94%30.07 "Hg15 mi
3:00 AM52 °FPassing clouds.2 mph94%30.07 "Hg15 mi
2:00 AM54 °FPassing clouds.No wind100%30.07 "Hg15 mi
1:00 AM55 °FPassing clouds.2 mph94%30.07 "Hg15 mi
12:00 AM55 °FPassing clouds.No wind100%30.07 "Hg15 mi
11:00 PM
Jul 29
59 °FPassing clouds.No wind94%30.07 "Hg15 mi
10:00 PM63 °FPartly sunny.No wind88%30.08 "Hg12 mi
9:00 PM73 °FPartly sunny.3 mph61%30.07 "Hg15 mi
8:00 PM77 °FOvercast.6 mph54%30.07 "Hg15 mi
7:00 PM79 °FOvercast.8 mph48%30.08 "Hg15 mi
6:00 PM79 °FPartly sunny.8 mph51%30.09 "Hg15 mi
5:00 PM81 °FPartly sunny.5 mph45%30.09 "Hg15 mi
4:00 PM81 °FPartly sunny.3 mph45%30.10 "Hg15 mi
3:00 PM79 °FScattered clouds.7 mph48%30.10 "Hg10 mi
2:00 PM77 °FScattered clouds.No wind54%30.11 "Hg10 mi
1:00 PM75 °FScattered clouds.6 mph57%30.12 "Hg10 mi
12:00 PM73 °FScattered clouds.7 mph61%30.12 "Hg10 mi
Weather by CustomWeather, © 2014

See weather overviewHow to use our weather pages